Weather Roundup
Issued by NWS Chicago, IL

Home | Current Version | Previous Version | Text Only | Print | Product List | Glossary On
Versions: 1 2 3 4 5 6 7 8 9 10 11 12 13 14 15 16 17 18 19 20 21 22 23 24 25 26 27 28 29 30 31 32 33 34 35 36 37 38 39 40 41 42 43 44 45 46 47 48 49 50
000
NZUS59 KLOT 211909
HRRLOT

CHICAGO AREA WEATHER ROUNDUP
NATIONAL WEATHER SERVICE CHICAGO/ROMEOVILLE IL
200 PM CDT SAT OCT 21 2017

NOTE: "FAIR" INDICATES FEW OR NO CLOUDS BELOW 12,000 FEET WITH NO
SIGNIFICANT WEATHER AND/OR OBSTRUCTIONS TO VISIBILITY.

* THESE STATIONS ARE NOT UNDER NWS QUALITY CONTROL. THEY ALSO MAY NOT
  REPORT WEATHER SUCH AS PRECIPITATION OR FOG.

ILZ005-006-012>014-019>023-212000-
NORTHEAST ILLINOIS

CITY           SKY/WX    TMP DP  RH WIND       PRES   REMARKS
OHARE          MOSUNNY   76  56  49 S17       30.00F
MIDWAY         PTSUNNY   75  56  51 S16G30    30.02F
AURORA         SUNNY     77  56  48 S21G28    30.00F
LANSING*       CLOUDY    73  60  62 S16G26    30.05F
JOLIET*        MOSUNNY   76  58  54 S13G24    30.02F
WAUKEGAN       MOSUNNY   74  57  55 S16G25    29.98F
DUPAGE AIRPORT SUNNY     76  57  51 S20G29    29.99F
WHEELING       MOSUNNY   76  57  51 S21       30.01F
KANKAKEE*      PTSUNNY   74  57  54 S16       30.06F
MORRIS*        SUNNY     77  56  49 S16G22    30.00F
LEWIS AIRPORT* SUNNY    N/A N/A N/A S17       30.02S
NORTHERLY ISL    N/A     73  53  49 S24         N/A
$$

WIZ051-052-058>065-066-070>072-212000-
SOUTHEAST WISCONSIN

CITY           SKY/WX    TMP DP  RH WIND       PRES   REMARKS
MILWAUKEE      MOSUNNY   75  56  51 S13G21    29.96F
KENOSHA*       SUNNY     75  56  51 S15G24    29.98F
RACINE*        MOSUNNY   68  55  63 S15       29.99F
BURLINGTON     SUNNY     76  57  50 S13G22    29.96F
WAUKESHA       SUNNY     70  52  52 S9G15     29.96F
WEST BEND      SUNNY     73  52  46 S13G18    29.94F
$$

INZ001>003-010>013-019-020-212000-
NORTHWEST INDIANA

CITY           SKY/WX    TMP DP  RH WIND       PRES   REMARKS
GARY*          PTSUNNY   75  54  46 S9G32     30.06F
MICHIGAN CITY* NOT AVBL
RENSSELAER*    NOT AVBL
VALPARAISO     CLOUDY    75  56  51 S15G24    30.09F
$$

LMZ740>746-212000-
SOUTHERN LAKE MICHIGAN

STATION/POSITION TIME  SKY/WX   TEMP WIND        PRES    VSBY
                                AIR  DIR/SP/G
                 (UTC)          (F)  (DEG/KT/KT) (MB)    (MI)
HARRISON CRIB    1840            71  190/ 25/ 26   N/A
BURNHAM HARBOR   1900            72  190/ 17/ 22   N/A
CALUMET HARBOR   1848            72  170/ 16/ 24 1016.4F
BURNS HARBOR     1840            72  190/ 17/ 23 1018.3F
MICHIGAN CITY    1840            72  180/ 16/ 19   N/A
$$

ABBREVIATIONS USED IN REMARKS
   TC - TEMPERATURE IN CELSIUS
  WCI - WIND CHILL INDEX
   HX - HEAT INDEX
  VSB - VISIBILITY
$$




USA.gov is the U.S. government's official web portal to all federal, state and local government web resources and services.